Weather History for Menominee, MI

Change the Weather History Date:

Wednesday, May 1, 2013

  Actual Average Record
Temperature  
Mean Temperature 56 °F -  
Max Temperature 66 °F 60 °F 89 °F (1952)
Min Temperature 46 °F 38 °F 25 °F (1961)
Degree Days  
Heating Degree Days 9    
Growing Degree Days 6 (Base 50)    
Moisture  
Dew Point 44 °F    
Average Humidity 62    
Maximum Humidity 77    
Minimum Humidity 45    
Precipitation  
Precipitation 0.00 in - - ()
Sea Level Pressure  
Sea Level Pressure 30.11 in    
Wind  
Wind Speed 10 mph (NE)    
Max Wind Speed 22 mph    
Max Gust Speed 28 mph    
Visibility 10 miles    
Events      
Averages and records for this station are not official NWS values.
T = Trace of Precipitation, MM = Missing Value Source: NWS Daily Summary

Daily Weather History Graph

Daily Weather History Graph

Search for Another Location

Airport:

Trip Planner

Search our weather history database for the weather conditions in past years. The results will help you decide how hot, cold, wet, or windy it might be!

Date:

Astronomy

May. 01, 2013 Rise Set
Actual Time 5:39 AM CDT 7:56 PM CDT
Civil Twilight 5:06 AM CDT 8:29 PM CDT
Nautical Twilight 4:26 AM CDT 9:09 PM CDT
Astronomical Twilight 3:41 AM CDT 9:55 PM CDT
Moon 1:06 AM CDT (5/1) 11:17 AM CDT (5/1)
Length of Visible Light 15h 22m
Length of Day
14h 17m
Waning Gibbous, 59% of the Moon is Illuminated
May 1
Waning Gibbous
May 2
Last Quarter
May 9
New
May 17
First Quarter
May 24
Full

Hourly Weather History & Observations

Time (CDT) Temp. Windchill Dew Point Humidity Pressure Visibility Wind Dir Wind Speed Gust Speed Precip Events Conditions
12:15 AM 66.2 °F - 51.8 °F 60% 29.85 in 10.0 mi West 9.2 mph - N/A   Mostly Cloudy
12:35 AM 66.2 °F - 53.6 °F 64% 29.88 in 10.0 mi NNW 11.5 mph - N/A   Partly Cloudy
12:55 AM 64.4 °F - 55.4 °F 73% 29.89 in 10.0 mi North 12.7 mph 18.4 mph N/A   Clear
1:15 AM 64.4 °F - 51.8 °F 64% 29.93 in 10.0 mi NNW 9.2 mph 20.7 mph N/A   Clear
1:35 AM 62.6 °F - 46.4 °F 55% 29.94 in 10.0 mi NNW 13.8 mph 20.7 mph N/A   Clear
2:15 AM 60.8 °F - 46.4 °F 59% 29.96 in 10.0 mi NNW 8.1 mph - N/A   Clear
2:35 AM 60.8 °F - 46.4 °F 59% 29.96 in 10.0 mi North 4.6 mph - N/A   Clear
2:55 AM 59.0 °F - 46.4 °F 63% 29.95 in 10.0 mi Calm Calm - N/A   Clear
3:15 AM 59.0 °F - 46.4 °F 63% 29.96 in 10.0 mi NNW 3.5 mph - N/A   Clear
3:35 AM 57.2 °F - 46.4 °F 67% 29.97 in 10.0 mi Calm Calm - N/A   Clear
3:55 AM 57.2 °F - 46.4 °F 67% 29.98 in 10.0 mi Calm Calm - N/A   Clear
4:15 AM 55.4 °F - 48.2 °F 77% 30.00 in 10.0 mi NW 3.5 mph - N/A   Clear
4:35 AM 55.4 °F - 48.2 °F 77% 30.01 in 10.0 mi Calm Calm - N/A   Clear
4:55 AM 51.8 °F - 44.6 °F 76% 30.01 in 10.0 mi SE 4.6 mph - N/A   Clear
5:15 AM 51.8 °F - 44.6 °F 76% 30.02 in 10.0 mi Calm Calm - N/A   Clear
5:35 AM 51.8 °F - 44.6 °F 76% 30.04 in 10.0 mi North 3.5 mph - N/A   Clear
5:55 AM 53.6 °F - 46.4 °F 77% 30.05 in 10.0 mi NNW 3.5 mph - N/A   Clear
6:15 AM 55.4 °F - 48.2 °F 77% 30.06 in 10.0 mi NNW 4.6 mph - N/A   Mostly Cloudy
6:35 AM 55.4 °F - 48.2 °F 77% 30.08 in 10.0 mi NNW 5.8 mph - N/A   Mostly Cloudy
6:55 AM 55.4 °F - 48.2 °F 77% 30.07 in 10.0 mi NNW 6.9 mph - N/A   Clear
7:15 AM 55.4 °F - 48.2 °F 77% 30.07 in 10.0 mi NNW 8.1 mph - N/A   Clear
7:35 AM 57.2 °F - 48.2 °F 72% 30.08 in 10.0 mi NNW 10.4 mph - N/A   Clear
7:55 AM 59.0 °F - 48.2 °F 67% 30.09 in 10.0 mi North 9.2 mph - N/A   Clear
8:15 AM 60.8 °F - 48.2 °F 63% 30.09 in 10.0 mi NNE 9.2 mph - N/A   Clear
8:35 AM 60.8 °F - 48.2 °F 63% 30.09 in 10.0 mi NE 8.1 mph - N/A   Clear
9:15 AM 62.6 °F - 48.2 °F 59% 30.10 in 10.0 mi NE 8.1 mph - N/A   Clear
9:35 AM 62.6 °F - 48.2 °F 59% 30.10 in 10.0 mi NNE 8.1 mph - N/A   Clear
10:15 AM 62.6 °F - 48.2 °F 59% 30.12 in 10.0 mi NNE 11.5 mph - N/A   Clear
10:35 AM 64.4 °F - 48.2 °F 56% 30.12 in 10.0 mi North 6.9 mph - N/A   Clear
10:55 AM 64.4 °F - 48.2 °F 56% 30.12 in 10.0 mi East 9.2 mph - N/A   Partly Cloudy
11:15 AM 60.8 °F - 46.4 °F 59% 30.13 in 10.0 mi ESE 12.7 mph - N/A   Partly Cloudy
11:35 AM 60.8 °F - 46.4 °F 59% 30.13 in 10.0 mi East 16.1 mph - N/A   Clear
11:55 AM 59.0 °F - 44.6 °F 59% 30.14 in 10.0 mi East 11.5 mph - N/A   Partly Cloudy
12:15 PM 60.8 °F - 44.6 °F 55% 30.14 in 10.0 mi East 9.2 mph - N/A   Partly Cloudy
12:35 PM 62.6 °F - 46.4 °F 55% 30.14 in 10.0 mi East 9.2 mph - N/A   Clear
12:55 PM 62.6 °F - 44.6 °F 52% 30.15 in 10.0 mi East 11.5 mph - N/A   Clear
1:15 PM 62.6 °F - 42.8 °F 48% 30.15 in 10.0 mi East 15.0 mph - N/A   Clear
1:35 PM 62.6 °F - 42.8 °F 48% 30.16 in 10.0 mi East 13.8 mph 19.6 mph N/A   Clear
2:15 PM 62.6 °F - 42.8 °F 48% 30.16 in 10.0 mi East 16.1 mph - N/A   Clear
2:35 PM 64.4 °F - 42.8 °F 45% 30.17 in 10.0 mi East 16.1 mph - N/A   Clear
2:55 PM 62.6 °F - 42.8 °F 48% 30.18 in 10.0 mi East 12.7 mph - N/A   Mostly Cloudy
3:15 PM 62.6 °F - 42.8 °F 48% 30.18 in 10.0 mi East 15.0 mph - N/A   Mostly Cloudy
3:35 PM 60.8 °F - 39.2 °F 45% 30.19 in 10.0 mi ENE 19.6 mph 25.3 mph N/A   Mostly Cloudy
3:55 PM 59.0 °F - 39.2 °F 48% 30.19 in 10.0 mi ENE 18.4 mph 25.3 mph N/A   Mostly Cloudy
4:15 PM 57.2 °F - 39.2 °F 51% 30.20 in 10.0 mi East 18.4 mph 24.2 mph N/A   Mostly Cloudy
4:35 PM 57.2 °F - 39.2 °F 51% 30.20 in 10.0 mi East 17.3 mph 24.2 mph N/A   Scattered Clouds
4:55 PM 55.4 °F - 37.4 °F 51% 30.21 in 10.0 mi ENE 18.4 mph - N/A   Partly Cloudy
5:15 PM 55.4 °F - 39.2 °F 54% 30.21 in 10.0 mi ENE 19.6 mph 26.5 mph N/A   Clear
5:35 PM 53.6 °F - 37.4 °F 54% 30.22 in 10.0 mi ENE 21.9 mph 27.6 mph N/A   Partly Cloudy
5:55 PM 51.8 °F - 37.4 °F 58% 30.22 in 10.0 mi ENE 20.7 mph 27.6 mph N/A   Partly Cloudy
6:15 PM 51.8 °F - 37.4 °F 58% 30.23 in 10.0 mi East 19.6 mph 26.5 mph N/A   Mostly Cloudy
6:35 PM 50.0 °F - 37.4 °F 62% 30.23 in 10.0 mi ENE 18.4 mph 26.5 mph N/A   Overcast
6:55 PM 50.0 °F - 37.4 °F 62% 30.24 in 10.0 mi ENE 21.9 mph 25.3 mph N/A   Overcast
7:15 PM 51.8 °F - 39.2 °F 62% 30.24 in 10.0 mi ENE 12.7 mph - N/A   Overcast
7:35 PM 48.2 °F - 39.2 °F 71% 30.25 in 10.0 mi East 11.5 mph - N/A   Overcast
7:55 PM 48.2 °F - 39.2 °F 71% 30.26 in 10.0 mi East 10.4 mph - N/A   Overcast
8:55 PM 48.2 °F - 37.4 °F 66% 30.29 in 10.0 mi NE 16.1 mph 21.9 mph N/A   Scattered Clouds
9:35 PM 48.2 °F - 35.6 °F 62% 30.32 in 10.0 mi NNE 16.1 mph 21.9 mph N/A   Mostly Cloudy
9:55 PM 46.4 °F 40.4 °F 35.6 °F 66% 30.32 in 10.0 mi NE 13.8 mph 19.6 mph N/A   Mostly Cloudy
10:15 PM 46.4 °F 40.7 °F 35.6 °F 66% 30.33 in 10.0 mi North 12.7 mph 23.0 mph N/A   Scattered Clouds